UAL417 KLAX-PHOG

Flight info

Callsign UAL417
Flight time N/A
Altitude 38000
Route SUMMR2 DINTY DUETS R576 DADIE/N0478F400 R576 DENNS LNDHY1
Aircraft B772/H-SDE2E3FGHIJ5LORVWXY/LB1D1

Departure

Time N/A
Airport Los Angeles International Airport (KLAX)

Arrival

Time 2026-04-24 21:42
Airport Kahului International Airport (PHOG)
Time Latitude Longitude Altitude Speed Heading
2026-04-24 19:52 26.73395 -144.45575 38091 ft 452 kts 249°
2026-04-24 19:52 26.70740 -144.51946 38090 ft 452 kts 249°
2026-04-24 19:53 26.68079 -144.58317 38096 ft 452 kts 249°
2026-04-24 19:54 26.64080 -144.67873 38092 ft 452 kts 249°
2026-04-24 19:54 26.61794 -144.73329 38093 ft 451 kts 249°
2026-04-24 19:55 26.59580 -144.78607 38091 ft 451 kts 249°
2026-04-24 19:55 26.56464 -144.86024 38094 ft 451 kts 249°
2026-04-24 19:56 26.53810 -144.92325 38091 ft 451 kts 249°
2026-04-24 19:56 26.51140 -144.98659 38094 ft 451 kts 249°
2026-04-24 19:57 26.48459 -145.05007 38093 ft 451 kts 249°
2026-04-24 19:57 26.45781 -145.11338 38096 ft 451 kts 249°
2026-04-24 19:58 26.43106 -145.17658 38099 ft 450 kts 249°
2026-04-24 19:58 26.40444 -145.23938 38103 ft 451 kts 249°
2026-04-24 19:59 26.37759 -145.30261 38099 ft 451 kts 249°
2026-04-24 19:59 26.35063 -145.36597 38104 ft 452 kts 249°
2026-04-24 20:00 26.32361 -145.42940 38102 ft 452 kts 249°
2026-04-24 20:00 26.29659 -145.49271 38100 ft 453 kts 249°
2026-04-24 20:01 26.26948 -145.55616 38094 ft 453 kts 249°
2026-04-24 20:01 26.24252 -145.61917 38109 ft 452 kts 249°
2026-04-24 20:02 26.21996 -145.67178 38117 ft 452 kts 248°
2026-04-24 20:02 26.18847 -145.74515 38121 ft 452 kts 248°
2026-04-24 20:03 26.16132 -145.80833 38120 ft 452 kts 248°
2026-04-24 20:03 26.13412 -145.87155 38120 ft 452 kts 248°
2026-04-24 20:04 26.10693 -145.93460 38120 ft 452 kts 248°
2026-04-24 20:04 26.07966 -145.99777 38121 ft 452 kts 248°
2026-04-24 20:05 26.05235 -146.06095 38119 ft 452 kts 248°
2026-04-24 20:05 26.02523 -146.12361 38120 ft 452 kts 248°
2026-04-24 20:06 25.99787 -146.18673 38123 ft 452 kts 248°
2026-04-24 20:06 25.97054 -146.24971 38118 ft 452 kts 248°
2026-04-24 20:07 25.94779 -146.30208 38121 ft 452 kts 248°
2026-04-24 20:07 25.91581 -146.37568 38118 ft 452 kts 248°
2026-04-24 20:08 25.88843 -146.43852 38120 ft 452 kts 248°
2026-04-24 20:08 25.86097 -146.50146 38120 ft 452 kts 248°
2026-04-24 20:09 25.83371 -146.56392 38121 ft 452 kts 248°
2026-04-24 20:09 25.80625 -146.62671 38120 ft 452 kts 248°
2026-04-24 20:10 25.77879 -146.68947 38121 ft 452 kts 248°
2026-04-24 20:10 25.75125 -146.75227 38119 ft 452 kts 248°
2026-04-24 20:11 25.72369 -146.81498 38121 ft 452 kts 248°
2026-04-24 20:11 25.69614 -146.87766 38120 ft 452 kts 248°
2026-04-24 20:12 25.66872 -146.93992 38126 ft 454 kts 248°
2026-04-24 20:12 25.65481 -146.97147 38259 ft 455 kts 247°
2026-04-24 20:12 25.64094 -147.00292 38483 ft 454 kts 247°
2026-04-24 20:12 25.62706 -147.03435 38755 ft 452 kts 247°
2026-04-24 20:13 25.61320 -147.06566 39027 ft 451 kts 247°
2026-04-24 20:13 25.59944 -147.09677 39255 ft 450 kts 247°
2026-04-24 20:13 25.58563 -147.12799 39433 ft 450 kts 247°
2026-04-24 20:13 25.57187 -147.15908 39623 ft 450 kts 247°
2026-04-24 20:14 25.55808 -147.19020 39845 ft 449 kts 247°
2026-04-24 20:14 25.54433 -147.22120 40008 ft 448 kts 247°
2026-04-24 20:14 25.53058 -147.25219 40049 ft 449 kts 247°
2026-04-24 20:15 25.50320 -147.31385 40115 ft 449 kts 247°
2026-04-24 20:15 25.47562 -147.37585 40120 ft 448 kts 247°
2026-04-24 20:16 25.44809 -147.43765 40120 ft 447 kts 247°
2026-04-24 20:16 25.42056 -147.49937 40121 ft 447 kts 247°
2026-04-24 20:17 25.39299 -147.56109 40131 ft 447 kts 247°
2026-04-24 20:17 25.35164 -147.65350 40130 ft 447 kts 247°
2026-04-24 20:18 25.32868 -147.70472 40130 ft 447 kts 247°
2026-04-24 20:18 25.29653 -147.77636 40130 ft 448 kts 247°
2026-04-24 20:19 25.27349 -147.82763 40130 ft 448 kts 247°
2026-04-24 20:19 25.24575 -147.88927 40130 ft 448 kts 247°
2026-04-24 20:20 25.21793 -147.95101 40128 ft 449 kts 247°
2026-04-24 20:20 25.19009 -148.01270 40132 ft 449 kts 247°
2026-04-24 20:21 25.16218 -148.07448 40131 ft 449 kts 247°
2026-04-24 20:21 25.13421 -148.13630 40132 ft 450 kts 247°
2026-04-24 20:22 25.10621 -148.19809 40130 ft 450 kts 247°
2026-04-24 20:22 25.07834 -148.25951 40132 ft 450 kts 246°
2026-04-24 20:23 25.05031 -148.32120 40127 ft 450 kts 246°
2026-04-24 20:23 25.02222 -148.38293 40131 ft 450 kts 247°
2026-04-24 20:24 24.99414 -148.44457 40125 ft 449 kts 246°
2026-04-24 20:24 24.96605 -148.50613 40131 ft 449 kts 246°
2026-04-24 20:25 24.93820 -148.56710 40130 ft 449 kts 246°
2026-04-24 20:25 24.91010 -148.62854 40130 ft 449 kts 246°
2026-04-24 20:26 24.88200 -148.68987 40129 ft 448 kts 246°
2026-04-24 20:26 24.85386 -148.75123 40131 ft 448 kts 246°
2026-04-24 20:27 24.82574 -148.81246 40130 ft 448 kts 246°
2026-04-24 20:27 24.79759 -148.87367 40132 ft 448 kts 246°
2026-04-24 20:28 24.76961 -148.93441 40129 ft 448 kts 246°
2026-04-24 20:28 24.74142 -148.99556 40130 ft 448 kts 246°
2026-04-24 20:29 24.71322 -149.05662 40129 ft 448 kts 246°
2026-04-24 20:29 24.68499 -149.11767 40132 ft 448 kts 246°
2026-04-24 20:30 24.65673 -149.17872 40131 ft 448 kts 246°
2026-04-24 20:30 24.62846 -149.23970 40128 ft 447 kts 246°
2026-04-24 20:31 24.60016 -149.30066 40130 ft 447 kts 246°
2026-04-24 20:31 24.57203 -149.36117 40130 ft 447 kts 246°
2026-04-24 20:32 24.54374 -149.42197 40129 ft 447 kts 246°
2026-04-24 20:32 24.51539 -149.48280 40138 ft 447 kts 246°
2026-04-24 20:33 24.48707 -149.54348 40139 ft 447 kts 246°
2026-04-24 20:33 24.45868 -149.60423 40139 ft 447 kts 246°
2026-04-24 20:34 24.43041 -149.66467 40134 ft 447 kts 246°
2026-04-24 20:34 24.40199 -149.72533 40129 ft 447 kts 246°
2026-04-24 20:35 24.37350 -149.78606 40124 ft 447 kts 246°
2026-04-24 20:35 24.34507 -149.84660 40133 ft 446 kts 246°
2026-04-24 20:36 24.31676 -149.90678 40140 ft 446 kts 246°
2026-04-24 20:36 24.28831 -149.96720 40138 ft 446 kts 246°
2026-04-24 20:37 24.25983 -150.02760 40137 ft 445 kts 246°
2026-04-24 20:37 24.23138 -150.08787 40135 ft 445 kts 246°
2026-04-24 20:38 24.20287 -150.14818 40139 ft 445 kts 246°
2026-04-24 20:38 24.17435 -150.20843 40138 ft 445 kts 246°
2026-04-24 20:39 24.14600 -150.26825 40138 ft 445 kts 246°
2026-04-24 20:39 24.11740 -150.32852 40139 ft 446 kts 246°
2026-04-24 20:40 24.08879 -150.38873 40138 ft 446 kts 246°
2026-04-24 20:40 24.06015 -150.44893 40138 ft 446 kts 246°
2026-04-24 20:41 24.03145 -150.50920 40138 ft 447 kts 246°
2026-04-24 20:41 24.00269 -150.56950 40139 ft 447 kts 246°
2026-04-24 20:42 23.97390 -150.62977 40144 ft 447 kts 246°
2026-04-24 20:42 23.94512 -150.68996 40137 ft 446 kts 246°
2026-04-24 20:43 23.91650 -150.74973 40138 ft 446 kts 246°
2026-04-24 20:43 23.88771 -150.80979 40139 ft 445 kts 246°
2026-04-24 20:44 23.85895 -150.86971 40138 ft 445 kts 246°
2026-04-24 20:44 23.83019 -150.92957 40137 ft 445 kts 246°
2026-04-24 20:45 23.80138 -150.98944 40137 ft 445 kts 246°
2026-04-24 20:45 23.77257 -151.04924 40139 ft 445 kts 245°
2026-04-24 20:46 23.74391 -151.10867 40139 ft 445 kts 245°
2026-04-24 20:46 23.71502 -151.16847 40138 ft 445 kts 245°
2026-04-24 20:47 23.68614 -151.22821 40138 ft 445 kts 245°
2026-04-24 20:47 23.65717 -151.28804 40139 ft 446 kts 245°
2026-04-24 20:48 23.62816 -151.34789 40138 ft 446 kts 245°
2026-04-24 20:48 23.59912 -151.40772 40140 ft 447 kts 245°
2026-04-24 20:49 23.56998 -151.46768 40139 ft 448 kts 245°
2026-04-24 20:49 23.54096 -151.52734 40138 ft 448 kts 245°
2026-04-24 20:50 23.51174 -151.58732 40139 ft 448 kts 245°
2026-04-24 20:50 23.48248 -151.64731 40138 ft 449 kts 245°
2026-04-24 20:51 23.45319 -151.70729 40138 ft 449 kts 245°
2026-04-24 20:51 23.42382 -151.76736 40138 ft 449 kts 245°
2026-04-24 20:52 23.39448 -151.82729 40138 ft 449 kts 245°
2026-04-24 20:52 23.36507 -151.88729 40138 ft 449 kts 245°
2026-04-24 20:53 23.33571 -151.94713 40139 ft 448 kts 245°
2026-04-24 20:53 23.30624 -152.00710 40138 ft 448 kts 245°
2026-04-24 20:54 23.27705 -152.06644 40138 ft 448 kts 245°
2026-04-24 20:54 23.24761 -152.12622 40139 ft 448 kts 245°
2026-04-24 20:55 23.21820 -152.18586 40139 ft 448 kts 245°
2026-04-24 20:55 23.18880 -152.24543 40138 ft 447 kts 245°
2026-04-24 20:56 23.15934 -152.30501 40139 ft 447 kts 245°
2026-04-24 20:56 23.12995 -152.36441 40137 ft 446 kts 245°
2026-04-24 20:57 23.10052 -152.42382 40138 ft 446 kts 245°
2026-04-24 20:57 23.07129 -152.48275 40139 ft 445 kts 245°
2026-04-24 20:58 23.04189 -152.54198 40138 ft 445 kts 245°
2026-04-24 20:58 23.01250 -152.60102 40138 ft 445 kts 245°
2026-04-24 20:59 22.98291 -152.65999 40139 ft 444 kts 245°
2026-04-24 20:59 22.95331 -152.71886 40138 ft 444 kts 245°
2026-04-24 21:00 22.92374 -152.77767 40140 ft 443 kts 245°
2026-04-24 21:00 22.89440 -152.83597 40137 ft 442 kts 245°
2026-04-24 21:01 22.86490 -152.89453 40137 ft 442 kts 245°
2026-04-24 21:01 22.83546 -152.95297 40139 ft 442 kts 245°
2026-04-24 21:02 22.80597 -153.01143 40139 ft 443 kts 245°
2026-04-24 21:02 22.77637 -153.06995 40137 ft 442 kts 245°
2026-04-24 21:03 22.74683 -153.12837 40139 ft 443 kts 245°
2026-04-24 21:03 22.71717 -153.18692 40139 ft 443 kts 244°
2026-04-24 21:04 22.68754 -153.24533 40138 ft 443 kts 244°
2026-04-24 21:04 22.65803 -153.30337 40137 ft 442 kts 244°
2026-04-24 21:05 22.62819 -153.36216 40140 ft 442 kts 244°
2026-04-24 21:05 22.59870 -153.42008 40137 ft 443 kts 244°
2026-04-24 21:06 22.56896 -153.47847 40138 ft 442 kts 244°
2026-04-24 21:06 22.53924 -153.53673 40139 ft 442 kts 244°
2026-04-24 21:07 22.50942 -153.59513 40138 ft 442 kts 244°
2026-04-24 21:07 22.47984 -153.65299 40138 ft 442 kts 244°
2026-04-24 21:08 22.45013 -153.71105 40135 ft 441 kts 244°
2026-04-24 21:08 22.42541 -153.75931 40129 ft 441 kts 244°
2026-04-24 21:09 22.39573 -153.81721 40128 ft 440 kts 244°
2026-04-24 21:09 22.36604 -153.87509 40128 ft 440 kts 244°
2026-04-24 21:10 22.33492 -153.93206 40131 ft 440 kts 241°
2026-04-24 21:10 22.30242 -153.98806 40125 ft 440 kts 241°
2026-04-24 21:11 22.26999 -154.04417 40129 ft 440 kts 241°
2026-04-24 21:11 22.23779 -154.10031 40124 ft 439 kts 241°
2026-04-24 21:12 22.20591 -154.15602 40137 ft 439 kts 241°
2026-04-24 21:12 22.17384 -154.21202 40139 ft 439 kts 241°
2026-04-24 21:13 22.14172 -154.26803 40140 ft 439 kts 241°
2026-04-24 21:13 22.10953 -154.32418 40138 ft 440 kts 241°
2026-04-24 21:14 22.07732 -154.38022 40138 ft 440 kts 241°
2026-04-24 21:14 22.04500 -154.43643 40140 ft 441 kts 241°
2026-04-24 21:15 22.01271 -154.49255 40141 ft 441 kts 241°
2026-04-24 21:15 21.98037 -154.54867 40148 ft 440 kts 241°
2026-04-24 21:16 21.94815 -154.60478 40147 ft 439 kts 242°
2026-04-24 21:16 21.91846 -154.66231 40148 ft 438 kts 244°
2026-04-24 21:17 21.89100 -154.71809 40148 ft 438 kts 245°
2026-04-24 21:17 21.86225 -154.77596 40149 ft 440 kts 244°
2026-04-24 21:18 21.83343 -154.83331 39734 ft 430 kts 244°
2026-04-24 21:18 21.81912 -154.86167 38933 ft 433 kts 244°
2026-04-24 21:18 21.80466 -154.89033 38016 ft 438 kts 244°
2026-04-24 21:19 21.78995 -154.91946 37017 ft 445 kts 244°
2026-04-24 21:19 21.77505 -154.94891 36007 ft 452 kts 243°
2026-04-24 21:19 21.75987 -154.97891 34875 ft 461 kts 243°
2026-04-24 21:19 21.74442 -155.00942 33908 ft 467 kts 242°
2026-04-24 21:20 21.71344 -155.07051 32606 ft 464 kts 242°
2026-04-24 21:20 21.69801 -155.10092 32093 ft 461 kts 242°
2026-04-24 21:20 21.68273 -155.13102 31582 ft 457 kts 242°
2026-04-24 21:21 21.66755 -155.16093 31016 ft 455 kts 242°
2026-04-24 21:21 21.65237 -155.19082 30420 ft 454 kts 242°
2026-04-24 21:21 21.63727 -155.22055 29817 ft 453 kts 242°
2026-04-24 21:21 21.62219 -155.25021 29271 ft 451 kts 242°
2026-04-24 21:22 21.60718 -155.27970 28789 ft 448 kts 242°
2026-04-24 21:22 21.59230 -155.30893 28364 ft 442 kts 242°
2026-04-24 21:22 21.57758 -155.33782 27916 ft 438 kts 242°
2026-04-24 21:22 21.56317 -155.36611 27406 ft 436 kts 242°
2026-04-24 21:23 21.54859 -155.39469 26913 ft 434 kts 242°
2026-04-24 21:23 21.53414 -155.42299 26465 ft 430 kts 242°
2026-04-24 21:23 21.51984 -155.45101 26016 ft 426 kts 242°
2026-04-24 21:23 21.50561 -155.47887 25567 ft 423 kts 242°
2026-04-24 21:24 21.49151 -155.50647 25115 ft 420 kts 242°
2026-04-24 21:24 21.47751 -155.53385 24672 ft 417 kts 242°
2026-04-24 21:24 21.46358 -155.56108 24228 ft 415 kts 242°
2026-04-24 21:24 21.44976 -155.58809 23796 ft 411 kts 242°
2026-04-24 21:25 21.43603 -155.61492 23396 ft 408 kts 242°
2026-04-24 21:25 21.42236 -155.64160 22973 ft 405 kts 242°
2026-04-24 21:25 21.40882 -155.66801 22532 ft 403 kts 242°
2026-04-24 21:25 21.39551 -155.69397 22106 ft 401 kts 242°
2026-04-24 21:26 21.38210 -155.72010 21675 ft 399 kts 242°
2026-04-24 21:26 21.36878 -155.74603 21241 ft 392 kts 242°
2026-04-24 21:26 21.35578 -155.77135 20511 ft 384 kts 242°
2026-04-24 21:26 21.34292 -155.79639 19570 ft 382 kts 242°
2026-04-24 21:27 21.33014 -155.82127 18609 ft 381 kts 243°
2026-04-24 21:27 21.31741 -155.84603 17722 ft 376 kts 243°
2026-04-24 21:27 21.30483 -155.87048 16883 ft 372 kts 243°
2026-04-24 21:27 21.29244 -155.89456 16132 ft 366 kts 243°
2026-04-24 21:28 21.28016 -155.91840 15447 ft 367 kts 243°
2026-04-24 21:28 21.26786 -155.94229 15104 ft 364 kts 243°
2026-04-24 21:28 21.25574 -155.96581 14844 ft 358 kts 243°
2026-04-24 21:28 21.24378 -155.98901 14534 ft 354 kts 243°
2026-04-24 21:29 21.23188 -156.01211 14164 ft 353 kts 243°
2026-04-24 21:29 21.22004 -156.03505 13784 ft 351 kts 243°
2026-04-24 21:29 21.20825 -156.05791 13455 ft 348 kts 243°
2026-04-24 21:29 21.19668 -156.08028 13400 ft 337 kts 243°
2026-04-24 21:30 21.18565 -156.10161 13330 ft 326 kts 243°
2026-04-24 21:30 21.17434 -156.12212 13229 ft 315 kts 235°
2026-04-24 21:30 21.15855 -156.13801 13063 ft 309 kts 218°
2026-04-24 21:30 21.14107 -156.15106 12898 ft 303 kts 217°
2026-04-24 21:31 21.12388 -156.16385 12691 ft 298 kts 217°
2026-04-24 21:31 21.10727 -156.17632 12107 ft 288 kts 218°
2026-04-24 21:31 21.09088 -156.18875 11291 ft 288 kts 218°
2026-04-24 21:31 21.07454 -156.20125 10463 ft 289 kts 217°
2026-04-24 21:32 21.05822 -156.21377 9691 ft 287 kts 217°
2026-04-24 21:32 21.04245 -156.22587 9129 ft 278 kts 217°
2026-04-24 21:32 21.02696 -156.23771 8605 ft 269 kts 216°
2026-04-24 21:32 21.01199 -156.24918 8075 ft 261 kts 216°
2026-04-24 21:33 20.99739 -156.26026 7493 ft 255 kts 216°
2026-04-24 21:33 20.98760 -156.26768 7099 ft 254 kts 216°
2026-04-24 21:33 20.96861 -156.28209 6367 ft 253 kts 216°
2026-04-24 21:33 20.95422 -156.29299 6064 ft 253 kts 216°
2026-04-24 21:34 20.93980 -156.30390 5756 ft 254 kts 215°
2026-04-24 21:34 20.92534 -156.31484 5454 ft 256 kts 215°
2026-04-24 21:34 20.91077 -156.32586 5181 ft 257 kts 216°
2026-04-24 21:34 20.89657 -156.33663 5084 ft 249 kts 216°
2026-04-24 21:35 20.88262 -156.34693 5005 ft 240 kts 214°
2026-04-24 21:35 20.86884 -156.35679 5011 ft 239 kts 214°
2026-04-24 21:35 20.85477 -156.36680 5008 ft 245 kts 214°
2026-04-24 21:35 20.84055 -156.37690 4823 ft 245 kts 214°
2026-04-24 21:36 20.82639 -156.38697 4564 ft 243 kts 214°
2026-04-24 21:36 20.81248 -156.39685 4318 ft 239 kts 213°
2026-04-24 21:36 20.79872 -156.40664 4085 ft 235 kts 214°
2026-04-24 21:36 20.78537 -156.41620 3860 ft 231 kts 215°
2026-04-24 21:37 20.77223 -156.42645 3442 ft 235 kts 216°
2026-04-24 21:37 20.75938 -156.43620 3338 ft 218 kts 216°
2026-04-24 21:37 20.74834 -156.44695 3063 ft 210 kts 233°
2026-04-24 21:37 20.74269 -156.46053 2928 ft 197 kts 264°
2026-04-24 21:38 20.74391 -156.47452 2732 ft 185 kts 295°
2026-04-24 21:38 20.75127 -156.48513 2746 ft 178 kts 321°
2026-04-24 21:38 20.76169 -156.49252 2631 ft 181 kts 338°
2026-04-24 21:38 20.77355 -156.49634 2547 ft 175 kts 350°
2026-04-24 21:39 20.78560 -156.49840 2503 ft 174 kts 357°
2026-04-24 21:39 20.79761 -156.49801 2530 ft 173 kts
2026-04-24 21:39 20.80954 -156.49536 2317 ft 173 kts 19°
2026-04-24 21:39 20.81949 -156.48909 2024 ft 161 kts 38°
2026-04-24 21:40 20.82786 -156.48180 1819 ft 150 kts 38°
2026-04-24 21:40 20.83596 -156.47549 1558 ft 144 kts 31°
2026-04-24 21:40 20.84418 -156.46971 1278 ft 136 kts 34°
2026-04-24 21:40 20.85161 -156.46410 1118 ft 131 kts 35°
2026-04-24 21:41 20.85889 -156.45843 953 ft 129 kts 32°
2026-04-24 21:41 20.86636 -156.45314 748 ft 129 kts 32°
2026-04-24 21:41 20.87359 -156.44779 500 ft 122 kts 33°
2026-04-24 21:41 20.88038 -156.44276 302 ft 118 kts 34°
2026-04-24 21:42 20.88715 -156.43778 140 ft 117 kts 33°
2026-04-24 21:42 20.89345 -156.43315 48 ft 98 kts 33°
2026-04-24 21:42 20.89812 -156.42974 49 ft 66 kts 36°
2026-04-24 21:42 20.90085 -156.42763 47 ft 37 kts 35°
2026-04-24 21:43 20.90272 -156.42622 47 ft 27 kts 34°
2026-04-24 21:43 20.90411 -156.42520 46 ft 22 kts 33°
2026-04-24 21:43 20.90487 -156.42545 50 ft 10 kts 277°
2026-04-24 21:43 20.90466 -156.42618 50 ft 12 kts 245°
2026-04-24 21:44 20.90399 -156.42690 48 ft 14 kts 214°
2026-04-24 21:44 20.90319 -156.42748 49 ft 15 kts 214°
2026-04-24 21:44 20.90183 -156.42846 46 ft 26 kts 213°
2026-04-24 21:44 20.90033 -156.42957 48 ft 27 kts 214°
2026-04-24 21:45 20.89859 -156.43087 49 ft 30 kts 216°
2026-04-24 21:45 20.89701 -156.43196 49 ft 26 kts 220°
2026-04-24 21:45 20.89558 -156.43315 49 ft 26 kts 216°
2026-04-24 21:45 20.89410 -156.43426 49 ft 26 kts 214°
2026-04-24 21:46 20.89261 -156.43536 49 ft 26 kts 214°
2026-04-24 21:46 20.89135 -156.43630 47 ft 14 kts 216°
2026-04-24 21:46 20.89056 -156.43691 48 ft 14 kts 216°
2026-04-24 21:46 20.89014 -156.43736 49 ft 5 kts 254°
2026-04-24 21:47 20.89025 -156.43790 46 ft 9 kts 299°
2026-04-24 21:47 20.89041 -156.43819 48 ft 5 kts 302°
2026-04-24 21:47 20.89055 -156.43841 49 ft 2 kts 303°
2026-04-24 21:47 20.89056 -156.43843 49 ft 0 kts 303°